Regional Weather Roundup
Issued by NWS

Home | Current Version | Previous Version | Graphics & Text | Print | Product List | Glossary On
Versions: 1 2 3 4 5 6 7 8 9 10 11 12 13 14 15 16 17 18 19 20 21 22 23 24 25 26 27 28 29 30 31 32 33 34 35 36 37 38 39 40 41 42 43 44 45 46 47 48 49 50
000
ASUS43 KMKX 222321
RWRWI

WISCONSIN REGIONAL WEATHER ROUNDUP
NATIONAL WEATHER SERVICE MILWAUKEE/SULLIVAN WI
600 PM CDT TUE JUL 22 2014

NOTE: "FAIR" INDICATES FEW OR NO CLOUDS BELOW 12,000 FEET WITH NO
SIGNIFICANT WEATHER AND/OR OBSTRUCTIONS TO VISIBILITY.

WIZ001-002-006>008-014>016-023>028-230000-
NORTHWEST WISCONSIN

CITY           SKY/WX    TMP DP  RH WIND       PRES   REMARKS
SUPERIOR ARPT  PTSUNNY   77  59  54 NE8       30.05R
ASHLAND        MOSUNNY   74  61  63 NE8       30.07R
HAYWARD        MOSUNNY   78  59  51 N10       30.06R
SIREN          MOSUNNY   78  58  50 N9        30.07R
RICE LAKE      SUNNY     78  58  50 N9        30.06R
LADYSMITH      MOSUNNY   78  63  59 N12       30.06R HX  80
EAU CLAIRE     MOSUNNY   82  62  50 NW10      30.03R HX  83
MENOMONIE      PTCLDY    81  60  48 NW9       30.05R HX  82
NEW RICHMOND   MOSUNNY   79  60  52 NW8       30.07R HX  80
OSCEOLA        MOSUNNY   78  61  54 NW8       30.09R HX  80
$$

WIZ003>005-009-010-017-018-230000-
NORTH CENTRAL WISCONSIN

CITY           SKY/WX    TMP DP  RH WIND       PRES   REMARKS
WOODRUFF       CLOUDY    66  62  87 N14G20    30.08R
RHINELANDER    CLOUDY    68  62  81 N10G24    30.07R
EAGLE RIVER    LGT RAIN  64  62  92 N7G18     30.06R
LAND O LAKES   CLOUDY    65  61  87 N13G20    30.07R
PHILLIPS       PTSUNNY   73  61  65 N10G16    30.05R
TOMAHAWK       CLOUDY    72  61  69 N10G18    30.05R
MEDFORD        PTSUNNY   76  64  66 N10       30.03R
MERRILL        MOSUNNY   77  65  65 N14       30.02R
$$

WIZ029-030-035-036-043>047-230000-
CENTRAL WISCONSIN

CITY           SKY/WX    TMP DP  RH WIND       PRES   REMARKS
WAUSAU         MOSUNNY   78  62  57 NW12G22   29.99R HX  80
MOSINEE        PTSUNNY   79  64  61 NW15      30.01R HX  81
MARSHFIELD     PTSUNNY   78  63  59 NW13      30.02R HX  80
STEVENS POINT  MOSUNNY   81  64  56 NW14G21   29.99R HX  82
WAUPACA        SUNNY     88  64  43 NW12G22   29.95R HX  89
WAUTOMA        SUNNY     88  67  49 NW14G22   29.95R HX  91
WISC RAPIDS    PTSUNNY   82  65  56 NW14      30.00R HX  84
CAMP DOUGLAS   MOSUNNY   84  70  61 NW14      29.98R HX  88
$$

WIZ011>013-019>022-031-037>040-048>050-230000-
NORTHEAST WISCONSIN

CITY           SKY/WX    TMP DP  RH WIND       PRES   REMARKS
ANTIGO         PTSUNNY   73  63  70 NW15      30.02R
STURGEON BAY   PTSUNNY   82  64  54 N16       29.91R HX  84
GREEN BAY      SUNNY     88  67  49 NW13      29.90R HX  91
MANITOWOC      PTSUNNY   89  70  53 NW14G22   29.87S HX  94
APPLETON       PTSUNNY   88  63  42 NW15G21   29.92R HX  88
CLINTONVILLE   PTSUNNY   86  61  42 NW10      29.93R HX  86
OSHKOSH        SUNNY     88  66  48 NW17G24   29.91R HX  90
$$

WIZ032>034-041-042-053>061-230000-
SOUTHWEST WISCONSIN

CITY           SKY/WX    TMP DP  RH WIND       PRES   REMARKS
LA CROSSE      SUNNY     87  66  49 NW16      29.99R HX  89
SPARTA         MOSUNNY   85  63  47 NW14      30.00R HX  86
VIROQUA        FAIR      83  67  59 NW14      30.02R HX  85
BOSCOBEL       MOSUNNY   91  69  48 N13G18    29.96R HX  96
PRAIRIE DU CHI SUNNY     87  66  50 NW10      29.96R HX  89
PLATTEVILLE    FAIR      91  73  56 NW8       29.97R HX  99
$$

WIZ056-057-062-063-064-067-068-230000-
SOUTH CENTRAL WISCONSIN

CITY           SKY/WX    TMP DP  RH WIND       PRES   REMARKS
BARABOO/DELLS  SUNNY     87  67  51 NW14G20   29.95S HX  90
LONE ROCK      MOSUNNY   92  74  55 NW12G20   29.95R HX 101
WATERTOWN      SUNNY     89  74  59 W9        29.91R HX  98
MADISON        MOSUNNY   92  75  57 W8        29.92R HX 103
MIDDLETON      FAIR      92  72  52 NW8       29.93S HX  99
MONROE         MOSUNNY   90  73  58 W9        29.95R HX  98
JANESVILLE     MOSUNNY   91  73  55 W8        29.93R HX 100
$$

WIZ051-052-058>065-066-070>072-230000-
SOUTHEAST WISCONSIN

CITY           SKY/WX    TMP DP  RH WIND       PRES   REMARKS
MILWAUKEE      PTSUNNY   87  74  64 SW14      29.90S HX  95
WAUKESHA       CLOUDY    82  75  78 SW10      29.93S HX  89
MILWAUKEE/TIMM PTSUNNY   88  73  62 SW6       29.91S HX  96
RACINE         MOSUNNY   87  75  67 W10       29.93S HX  96
BURLINGTON     MOSUNNY   85  76  74 SW12      29.92F HX  93
KENOSHA        MOSUNNY   86  77  74 W7        29.93S HX  97
FOND DU LAC    MOSUNNY   89  69  51 NW16G25   29.91R HX  93
SHEBOYGAN      LGT RAIN  82  75  79 W13       29.89R HX  89
WEST BEND      MOSUNNY   88  68  51 W12       29.90S HX  91
JUNEAU         MOSUNNY   88  67  50 W8        29.92S HX  91
$$

LSZ147-162-230000-
LAKE SUPERIOR

STATION/POSITION TIME  TEMP    WIND        PRES    WAVE
                       AIR SEA DIR/SP/G            HT/PER
                 (UTC) (F)     (DEG/KT/KT) (MB)    (FT/S)
W MID LAKE BUOY  2250   54 40  320/  4/  4 1017.4R   2/ 4
PORT WING        2200   73      50/  3/  4 1017.3R
SAXON HARBOR     2240           60/  2/  4 1017.9R
$$

LMZ867-665-643>646-230000-
LAKE MICHIGAN

STATION/POSITION TIME  TEMP    WIND        PRES    WAVE
                       AIR SEA DIR/SP/G            HT/PER
                 (UTC) (F)     (DEG/KT/KT) (MB)    (FT/S)
N MID LAKE BUOY  2250   62 59  230/  8/ 10 1011.2R   5/ 7
NORTHPORT PIER   2200   77     310/  8/ 18 1011.2R
KEWAUNEE LAKESHO 2200   56     170/  4/  6 1012.1R
SHEBOYGAN LAKESH 2300   84     250/  4/  6 1011.5R
PORT WASHINGTON  2200          240/  9/ 12 1012.2F
ATWATER BUOY     2300   74     220/ 10     1013.3F
MILWAUKEE LAKESH 2300   85     240/ 10/ 13   N/A
S MID LAKE BUOY  2250   72 67  190/ 12/ 14 1013.0F   2/ 4
KENOSHA   LAKESH 2300   87     230/  9/ 17   N/A
$$

TC  - TEMPERATURE IN CELSIUS
VSB - VISIBILITY IN STATUTE MILES
WCI - WIND CHILL INDEX
HX  - HEAT INDEX




USA.gov is the U.S. government's official web portal to all federal, state and local government web resources and services.